This demonstration page uses our WeatherBlox Daily Observations layout. Learn more.

Left ArrowRight Arrow

30.21309, -93.2044

Hourly Observations for September 30, 2022

Temp ( °F °C ) Dew Point ( °F °C ) Humidity (%) Winds ( mph kmh ) Pressure ( in mb ) Visibility ( mi km ) Precip ( " mm )
12:15 am 00:15 Clear 59 15.1 48 8.7 66 66 N 5 7 30.09 1019 10 16 0.00 0.00
12:35 am 00:35 Clear 58 14.7 47 8.2 65 65 N 5 7 30.09 1019 10 16 0.00 0.00
12:55 am 00:55 Clear 58 14.6 47 8.4 66 66 N 5 7 30.08 1019 10 16 0.00 0.00
1:15 am 01:15 Clear 58 14.2 47 8.2 67 67 N 6 9 30.08 1019 10 16 0.00 0.00
1:35 am 01:35 Clear 57 14.1 47 8.1 67 67 N 6 9 30.07 1018 10 16 0.00 0.00
1:55 am 01:55 Clear 57 13.8 46 8 68 68 NNE 7 11 30.06 1018 10 16 0.00 0.00
2:15 am 02:15 Clear 56 13.6 46 7.8 68 68 N 7 11 30.06 1018 10 16 0.00 0.00
2:35 am 02:35 Clear 56 13.5 46 7.7 68 68 N 7 11 30.06 1018 10 16 0.00 0.00
2:55 am 02:55 Clear 57 13.7 46 7.7 67 67 N 6 9 30.06 1018 10 16 0.00 0.00
3:15 am 03:15 Clear 56 13.2 46 7.7 69 69 N 6 9 30.06 1018 10 16 0.00 0.00
3:35 am 03:35 Clear 55 12.9 46 7.6 70 70 N 6 9 30.05 1018 10 16 0.00 0.00
3:55 am 03:55 Clear 56 13.2 46 7.5 68 68 N 6 9 30.05 1018 10 16 0.00 0.00
4:15 am 04:15 Clear 55 12.8 46 7.5 70 70 N 6 9 30.05 1018 10 16 0.00 0.00
4:35 am 04:35 Clear 55 13 45 7.4 69 69 N 6 9 30.05 1018 10 16 0.00 0.00
4:55 am 04:55 Clear 55 12.7 45 7.3 70 70 N 7 11 30.05 1018 10 16 0.00 0.00
5:15 am 05:15 Clear 54 12.3 45 7.3 71 71 N 7 11 30.06 1018 10 16 0.00 0.00
5:35 am 05:35 Clear 54 12.2 45 7.3 72 72 N 6 9 30.06 1018 10 16 0.00 0.00
6:00 am 06:00 Mostly Clear 54 12 45 7 71 71 NNE 8 13 30.06 1018 10 16 0.00 0.00
6:53 am 06:53 Mostly Clear 54 12 45 7 71 71 NNE 8 13 30.07 1018 10 16 0.00 0.00
7:50 am 07:50 Mostly Sunny 55 13 46 8 72 72 NNE 8 13 30.07 1018 10 16 0.00 0.00
8:49 am 08:49 Mostly Sunny 61 16 46 8 59 59 NNE 9 15 30.07 1018 10 16 0.00 0.00
9:50 am 09:50 Mostly Sunny 64 18 48 9 56 56 NE 9 15 30.08 1019 10 16 0.00 0.00
10:55 am 10:55 Mostly Sunny 64 18 48 9 56 56 NE 12 19 30.07 1018 10 16 0.00 0.00
11:45 am 11:45 Mostly Sunny 73 23 45 7 36 36 NE 12 19 30.05 1018 10 16 0.00 0.00
12:47 pm 12:47 Mostly Sunny 75 24 43 6 31 31 NNE 14 22 30.02 1017 10 16 0.00 0.00
1:52 pm 13:52 Mostly Sunny 79 26 46 8 32 32 NE 13 20 29.99 1016 10 16 0.00 0.00
2:45 pm 14:45 Mostly Sunny 79 26 45 7 30 30 N 10 17 29.96 1014 10 16 0.00 0.00
3:54 pm 15:54 Mostly Sunny 81 27 46 8 30 30 N 10 17 29.95 1014 10 16 0.00 0.00
4:55 pm 16:55 Mostly Sunny 79 26 45 7 30 30 NE 8 13 29.94 1014 10 16 0.00 0.00
5:50 pm 17:50 Mostly Sunny 79 26 45 7 30 30 ENE 9 15 29.93 1013 10 16 0.00 0.00
6:45 pm 18:45 Mostly Sunny 75 24 46 8 36 36 NNE 5 7 29.95 1014 10 16 0.00 0.00
7:46 pm 19:46 Mostly Clear 72 22 48 9 43 43 NE 5 7 29.95 1014 10 16 0.00 0.00
8:48 pm 20:48 Mostly Clear 66 19 50 10 56 56 NNE 3 6 29.97 1015 10 16 0.00 0.00
9:45 pm 21:45 Mostly Clear 66 19 50 10 56 56 NNE 5 7 29.97 1015 10 16 0.00 0.00
10:15 pm 22:15 Clear 65 18.3 50 10 58 58 N 5 7 29.97 1015 10 16 0.00 0.00
10:35 pm 22:35 Clear 65 18.1 50 9.9 59 59 N 6 9 29.97 1015 10 16 0.00 0.00
10:55 pm 22:55 Clear 64 18 49 9.7 58 58 NNE 5 7 29.97 1015 10 16 0.00 0.00
11:15 pm 23:15 Clear 64 17.9 49 9.6 58 58 NNE 6 9 29.97 1015 10 16 0.00 0.00
11:35 pm 23:35 Clear 63 17.1 49 9.6 61 61 NNE 6 9 29.97 1015 10 16 0.00 0.00
11:55 pm 23:55 Clear 62 16.6 49 9.5 63 63 NE 5 7 29.97 1015 10 16 0.00 0.00

Powered by AerisWeather